This is the latest recevied weather packets stored in our database for station/object VE8SKI. If no packets are shown the sender has not sent any weather packets the latest 10 day(s).
| Time | Temp. | Humidity | Pressure | Rain* | Wind** | Luminosity | Snow |
|---|---|---|---|---|---|---|---|
| 1777260208 | -3.33° C | 70% | 1024.5 hPa | 0 mm | 1.79 m/s, 91° | - | - |
| 1777259906 | -3.33° C | 69% | 1024.4 hPa | 0 mm | 0.45 m/s, 35° | - | - |
| 1777259606 | -2.78° C | 69% | 1024.2 hPa | 0 mm | 1.79 m/s, 120° | - | - |
| 1777259306 | -2.78° C | 68% | 1024.1 hPa | 0 mm | 1.79 m/s, 87° | - | - |
| 1777259007 | -2.22° C | 67% | 1023.9 hPa | 0 mm | 1.79 m/s, 100° | - | - |
| 1777258707 | -2.22° C | 66% | 1023.8 hPa | 0 mm | 1.34 m/s, 82° | - | - |
| 1777258408 | -1.67° C | 65% | 1023.8 hPa | 0 mm | 1.79 m/s, 117° | - | - |
| 1777258105 | -1.67° C | 64% | 1023.5 hPa | 0 mm | 1.34 m/s, 101° | - | - |
| 1777257806 | -1.11° C | 64% | 1023.4 hPa | 0 mm | 2.68 m/s, 70° | - | - |
| 1777257506 | -1.11° C | 64% | 1023.3 hPa | 0 mm | 1.34 m/s, 120° | - | - |
| 1777257207 | -1.11° C | 64% | 1023.2 hPa | 0 mm | 1.79 m/s, 110° | - | - |
| 1777256907 | -0.56° C | 63% | 1023.2 hPa | 0 mm | 0.89 m/s, 98° | - | - |
| 1777256607 | -0.56° C | 62% | 1023.1 hPa | 0 mm | 1.79 m/s, 103° | - | - |
| 1777256305 | 0° C | 62% | 1023.1 hPa | 0 mm | 1.34 m/s, 115° | - | - |
| 1777256006 | 0° C | 62% | 1023.1 hPa | 0 mm | 1.34 m/s, 139° | - | - |
| 1777255706 | 0° C | 61% | 1023.1 hPa | 0 mm | 2.24 m/s, 108° | - | - |
| 1777255406 | 0.56° C | 61% | 1023.1 hPa | 0 mm | 1.34 m/s, 110° | - | - |
| 1777255107 | 0.56° C | 60% | 1023 hPa | 0 mm | 1.79 m/s, 105° | - | - |
| 1777254807 | 0.56° C | 59% | 1023 hPa | 0 mm | 2.24 m/s, 87° | - | - |
| 1777254505 | 1.11° C | 59% | 1023.1 hPa | 0 mm | 1.79 m/s, 82° | - | - |
| 1777254205 | 1.11° C | 58% | 1023.2 hPa | 0 mm | 1.34 m/s, 122° | - | - |
| 1777253906 | 1.11° C | 58% | 1023.2 hPa | 0 mm | 1.34 m/s, 107° | - | - |
| 1777253606 | 1.67° C | 58% | 1023.2 hPa | 0 mm | 1.79 m/s, 87° | - | - |
| 1777253307 | 1.67° C | 58% | 1023.3 hPa | 0 mm | 0.89 m/s, 107° | - | - |
| 1777253007 | 1.67° C | 58% | 1023.3 hPa | 0 mm | 1.79 m/s, 87° | - | - |
* Rain latest hour (hover to see other rain measurements)
** Current wind speed in m/s (hover to see current wind gust speed)